N4LLZ-13 Weather Reports


time (UTC)temp
C
wind
direction
speed
KPH
gust
KPH
rain 1hr
cm
rain 24hr
cm
rain mn
cm
humidity
%
barometer
mb
20260508025939 11 0 0.0 0.0 0.00 7.90 8.51 99 1012.8
20260508025438 11 0 0.0 0.0 1.78 7.90 8.51 99 1012.7
20260508024937 11 0 0.0 0.0 1.78 7.90 8.51 99 1012.7
20260508024436 11 328 0.0 0.0 1.78 7.90 8.51 99 1012.6
20260508023936 11 0 0.0 0.0 1.78 7.90 8.51 99 1012.6
20260508023435 12 342 0.0 0.0 1.78 7.90 8.51 99 1012.6
20260508022934 12 353 0.0 0.0 1.78 7.90 8.51 99 1012.5
20260508022433 12 27 0.0 0.0 1.78 7.90 8.51 99 1012.5
20260508021933 12 41 0.0 1.6 0.00 7.90 8.51 99 1012.4
20260508021432 12 89 0.0 1.6 0.00 7.90 8.51 99 1012.3
20260508020931 12 0 0.0 0.0 0.00 7.90 8.51 99 1012.7
20260508020430 12 0 0.0 0.0 0.00 7.90 8.51 99 1012.7
20260508015930 12 0 0.0 0.0 0.00 7.72 8.33 99 1012.5
20260508015429 12 0 0.0 0.0 0.00 7.72 8.33 99 1012.5
20260508014928 12 170 0.0 1.6 0.00 7.72 8.33 99 1012.5
20260508014427 12 0 0.0 0.0 0.00 7.72 8.33 99 1012.1
20260508013927 12 52 0.0 1.6 0.25 7.72 8.33 99 1011.8
20260508013426 12 0 0.0 0.0 1.55 7.72 8.33 99 1011.8
20260508012925 12 87 0.0 0.0 2.74 7.72 8.33 99 1011.7
20260508012424 12 76 0.0 0.0 8.36 8.15 8.76 99 1011.7
20260508011924 12 2 1.6 1.6 9.02 8.15 8.76 99 1011.9
20260508011423 12 359 0.0 0.0 9.07 8.15 8.76 99 1011.7
20260508010922 12 0 0.0 0.0 9.07 8.15 8.76 99 1011.8
20260508010421 12 40 0.0 1.6 8.74 8.13 8.74 99 1011.8
20260508005921 12 8 0.0 0.0 8.74 8.13 8.74 100 1011.7
20260508005420 12 225 0.0 0.0 8.74 8.13 8.74 99 1011.8
20260508004919 12 259 0.0 0.0 5.33 7.80 8.38 99 1011.7
20260508004418 12 77 1.6 1.6 4.39 7.70 8.31 99 1011.2
20260508003917 12 315 0.0 1.6 3.10 7.57 8.18 98 1011.7
20260508003417 12 317 1.6 3.2 1.91 7.44 8.05 98 1011.8
20260508002916 12 356 1.6 1.6 0.69 7.32 7.92 97 1011.8
20260508002415 12 331 0.0 1.6 0.03 7.26 7.85 97 1011.8
20260508001915 12 351 1.6 1.6 0.00 7.26 7.85 97 1011.3
20260508001414 12 45 1.6 1.6 0.00 7.26 7.85 97 1011.0
20260508000913 12 0 0.0 1.6 0.00 7.26 7.85 97 1010.8
20260508000413 12 26 1.6 1.6 0.00 7.26 7.85 96 1010.5
20260507235912 12 5 1.6 1.6 0.00 7.26 7.85 96 1010.6
20260507235411 12 45 1.6 1.6 0.00 7.26 7.85 97 1010.5
20260507234910 12 77 1.6 1.6 0.00 7.26 7.85 96 1010.5
20260507234409 12 95 1.6 3.2 0.00 7.26 7.85 96 1010.7
20260507233908 12 87 1.6 3.2 0.00 7.26 7.85 96 1010.7
20260507233408 12 96 1.6 3.2 0.00 7.26 7.85 96 1010.7
20260507232907 12 68 1.6 3.2 0.00 7.26 7.85 96 1010.6
20260507232406 12 54 0.0 1.6 0.00 7.26 7.85 96 1010.7
20260507231905 12 56 0.0 1.6 0.00 7.26 7.85 96 1010.8
20260507231404 12 44 0.0 1.6 0.00 7.26 7.85 96 1010.6
20260507230904 12 47 1.6 3.2 0.00 7.26 7.85 95 1010.5
20260507230403 12 47 0.0 1.6 0.00 7.26 7.85 95 1010.5
20260507225902 12 50 1.6 3.2 0.00 7.26 7.85 94 1010.6
20260507225401 12 53 1.6 4.8 0.00 7.26 7.85 94 1010.4
20260507224901 12 47 1.6 3.2 0.00 7.26 7.85 95 1010.2
20260507224400 12 89 1.6 3.2 0.00 7.26 7.85 94 1010.4
20260507223900 12 44 1.6 3.2 0.00 7.26 7.85 95 1010.4
20260507223358 12 48 1.6 3.2 0.00 7.26 7.85 94 1010.2
20260507222858 12 50 1.6 4.8 0.00 7.26 7.85 95 1010.3
20260507222357 12 74 1.6 4.8 0.00 7.26 7.85 94 1010.2
20260507221856 12 70 1.6 3.2 0.00 7.26 7.85 94 1010.2
20260507221355 12 339 1.6 3.2 0.00 7.26 7.85 94 1010.5
20260507220855 12 65 1.6 3.2 0.00 7.26 7.85 94 1010.3
20260507220354 12 59 1.6 4.8 0.00 7.26 7.85 94 1010.4
20260507215853 12 53 1.6 1.6 0.00 7.26 7.85 94 1010.2
20260507215352 12 44 1.6 3.2 0.00 7.26 7.85 95 1010.3
20260507214852 12 36 1.6 3.2 0.00 7.26 7.85 95 1010.3
20260507214351 12 7 1.6 1.6 0.00 7.26 7.85 96 1010.1
20260507213850 12 61 1.6 4.8 0.00 7.26 7.85 95 1010.1
20260507213349 12 2 1.6 3.2 0.00 7.26 7.85 95 1010.3
20260507212848 12 42 1.6 3.2 0.00 7.26 7.85 94 1010.2
20260507212348 12 27 3.2 6.4 0.00 7.26 7.85 94 1010.2
20260507211847 12 61 1.6 4.8 0.00 7.26 7.85 94 1010.1
20260507211346 12 7 3.2 4.8 0.00 7.26 7.85 95 1010.0
20260507210845 12 16 1.6 3.2 0.00 7.26 7.85 96 1009.9
20260507210345 12 67 1.6 3.2 0.00 7.26 7.85 96 1009.7
20260507205844 12 65 3.2 4.8 0.00 7.24 7.85 96 1009.7
20260507205343 12 20 1.6 1.6 0.00 7.24 7.85 98 1009.5
20260507204842 12 17 1.6 3.2 0.00 7.24 7.85 98 1009.5
20260507204342 13 316 1.6 3.2 0.00 7.24 7.85 98 1009.5
20260507203841 13 351 1.6 3.2 0.00 7.24 7.85 98 1009.7
20260507203340 13 44 1.6 4.8 0.00 7.24 7.85 99 1009.4
20260507202839 13 65 1.6 1.6 0.00 7.24 7.85 98 1009.2
20260507202338 13 39 1.6 4.8 0.00 7.09 7.85 99 1009.3
20260507201838 13 17 1.6 3.2 0.00 7.09 7.85 99 1009.2
20260507201337 13 58 1.6 3.2 0.00 7.09 7.85 100 1009.1
20260507200836 13 46 1.6 3.2 0.00 7.09 7.85 99 1009.1
20260507200335 13 14 1.6 4.8 0.00 7.24 7.90 100 1009.0
20260507195835 13 352 1.6 3.2 0.00 7.24 7.90 99 1009.1
20260507195334 13 11 1.6 3.2 0.00 7.24 7.90 99 1009.2
20260507194833 13 354 1.6 3.2 0.00 7.29 7.90 99 1009.2
20260507194332 13 47 1.6 3.2 0.00 7.37 7.90 99 1009.1
20260507193832 14 52 1.6 3.2 0.00 7.44 7.90 99 1009.0
20260507193331 14 355 1.6 3.2 0.00 7.49 7.90 100 1009.1
20260507192830 14 14 1.6 1.6 0.00 7.57 7.90 99 1009.4
20260507192329 15 342 1.6 3.2 1.09 8.23 8.41 100 1009.3
20260507191828 15 40 1.6 1.6 14.15 8.31 8.41 100 1009.2
20260507191327 15 2 1.6 4.8 14.15 8.33 8.41 100 1009.0
20260507190827 15 352 1.6 3.2 14.02 8.33 8.36 100 1008.8
20260507190326 15 33 1.6 1.6 16.36 8.31 8.36 99 1008.6
20260507185825 15 62 1.6 4.8 19.81 8.36 8.36 100 1008.1
20260507185324 15 13 1.6 3.2 23.67 8.33 8.33 99 1008.8
20260507184823 15 48 1.6 4.8 24.61 8.31 8.31 99 1008.9
20260507184323 15 334 1.6 3.2 25.32 8.28 8.28 100 1009.2
20260507183822 15 74 1.6 3.2 25.32 8.28 8.28 100 1009.3
20260507183321 15 13 1.6 3.2 25.32 8.28 8.28 99 1008.7
20260507182820 15 53 1.6 3.2 25.32 8.28 8.28 99 1008.4
20260507182319 15 25 1.6 3.2 12.29 6.99 6.99 99 1008.4
20260507181819 15 56 1.6 3.2 12.12 6.99 6.99 99 1008.5
20260507181318 16 68 1.6 6.4 11.76 6.93 6.93 99 1008.3
20260507180817 16 59 1.6 3.2 9.40 6.71 6.71 100 1008.6
20260507180316 17 33 1.6 3.2 6.17 6.38 6.38 99 1008.9
20260507175815 18 351 1.6 4.8 2.16 5.97 5.97 96 1008.6
20260507175314 21 71 3.2 6.4 1.17 5.84 5.84 93 1008.6
20260507174814 21 285 1.6 1.6 0.56 5.77 5.77 96 1008.4
20260507174313 21 306 1.6 1.6 0.58 5.77 5.77 95 1008.2
20260507173812 21 107 0.0 1.6 0.61 5.77 5.77 95 1008.0
20260507173311 21 254 0.0 1.6 0.91 5.77 5.77 95 1008.1
20260507172810 21 226 0.0 1.6 0.94 5.77 5.77 94 1008.0
20260507172310 21 130 1.6 1.6 1.12 5.77 5.77 95 1007.7
20260507171809 22 106 1.6 3.2 0.64 5.77 5.77 93 1007.6
20260507171308 22 142 0.0 1.6 0.71 5.77 5.77 95 1007.8
20260507170807 21 142 0.0 1.6 0.51 5.74 5.74 96 1007.8
20260507170306 21 227 0.0 0.0 0.53 5.74 5.74 98 1007.9
20260507165806 21 169 0.0 0.0 0.03 5.74 5.74 98 1008.1
20260507165306 21 212 0.0 0.0 0.00 5.69 5.69 98 1008.3
20260507164804 20 213 0.0 0.0 0.00 5.69 5.69 98 1008.6
20260507164303 20 198 0.0 1.6 0.00 5.69 5.69 98 1009.0
20260507163802 20 242 1.6 1.6 0.00 5.66 5.66 99 1009.0
20260507163301 20 210 0.0 0.0 0.00 5.66 5.66 99 1008.9
20260507162801 20 206 0.0 0.0 0.00 5.66 5.66 99 1009.2
20260507162300 20 197 0.0 1.6 0.46 5.71 5.71 99 1009.3
20260507161759 20 275 1.6 1.6 0.00 5.69 5.69 99 1009.3
20260507161258 20 274 1.6 1.6 0.00 5.69 5.69 99 1009.5
20260507160757 20 152 0.0 0.0 0.00 5.69 5.69 99 1009.5
20260507160257 20 213 1.6 1.6 0.00 5.74 5.74 99 1009.7
20260507155756 20 283 1.6 1.6 0.00 5.74 5.74 98 1009.4
20260507155255 20 211 1.6 1.6 0.00 5.71 5.71 97 1009.0
20260507154754 20 272 1.6 1.6 3.48 5.71 5.71 99 1008.9
20260507154253 20 297 0.0 1.6 5.51 5.71 5.71 99 1008.8
20260507153753 20 208 0.0 1.6 6.99 5.69 5.69 100 1008.9
20260507153252 20 239 0.0 1.6 15.72 5.66 5.66 100 1009.1
20260507152751 20 295 1.6 1.6 18.85 5.66 5.66 99 1009.1
20260507152250 20 279 1.6 1.6 3.53 6.99 6.99 99 1009.3
20260507151749 19 284 1.6 3.2 3.71 6.96 6.96 99 1009.4
20260507151249 19 261 1.6 1.6 3.81 6.93 6.93 99 1009.5
20260507150748 19 245 0.0 1.6 3.76 6.83 6.83 99 1009.5
20260507150247 19 243 1.6 1.6 3.71 6.78 6.78 99 1009.8
20260507145746 19 281 1.6 1.6 3.63 6.71 6.71 99 1009.7
20260507145245 19 115 0.0 1.6 23.09 5.36 5.36 99 1009.7
20260507144745 19 224 1.6 3.2 21.06 5.16 5.16 99 1009.7
20260507144244 19 268 1.6 1.6 19.20 4.98 4.98 99 1009.7
20260507143743 19 217 1.6 1.6 10.44 4.09 4.09 99 1009.8
20260507143242 20 301 1.6 3.2 7.24 3.78 3.78 99 1010.0
20260507142741 20 281 1.6 3.2 3.86 3.43 3.43 99 1010.0
20260507142241 20 307 1.6 1.6 1.85 3.25 3.25 99 1010.0
20260507141740 20 265 0.0 1.6 0.58 3.12 3.12 99 1010.0
20260507141239 20 268 0.0 0.0 0.38 3.07 3.07 99 1010.0
20260507140738 20 265 0.0 1.6 0.46 3.05 3.05 99 1010.0
20260507140237 20 292 0.0 0.0 0.91 3.05 3.05 99 1010.0
20260507135736 20 302 1.6 1.6 1.12 3.05 3.05 99 1010.0
20260507135236 20 297 0.0 0.0 1.14 3.05 3.05 99 1010.0
20260507134735 20 307 0.0 1.6 1.27 3.05 3.05 99 1010.0
20260507134234 20 331 1.6 1.6 1.27 3.05 3.05 99 1010.0
20260507133733 20 236 1.6 1.6 1.24 3.05 3.05 99 1010.0
20260507133232 20 229 0.0 1.6 1.60 3.05 3.05 99 1010.1
20260507132731 20 249 1.6 1.6 1.60 3.05 3.05 99 1010.1
20260507132230 20 195 0.0 1.6 1.68 3.07 3.07 99 1010.1
20260507131729 20 285 0.0 0.0 1.47 3.05 3.05 99 1010.1
20260507131228 20 308 0.0 0.0 1.24 3.02 3.02 99 1010.0
20260507130727 20 290 1.6 1.6 0.79 2.97 2.97 99 1010.0
20260507130227 19 306 1.6 1.6 0.58 2.95 2.95 99 1010.0
20260507125726 19 298 1.6 1.6 0.56 2.95 2.95 99 1010.0
20260507125225 19 266 0.0 1.6 0.43 2.92 2.92 99 1010.0
20260507124725 19 262 0.0 0.0 0.43 2.92 2.92 99 1010.0
20260507124224 19 314 1.6 1.6 0.43 2.92 2.92 99 1010.0
20260507123723 19 292 1.6 3.2 0.08 2.90 2.90 99 1010.0
20260507123222 19 42 0.0 1.6 0.08 2.90 2.90 99 1010.0
20260507122722 19 77 0.0 1.6 0.08 2.90 2.90 99 1010.1
20260507122221 19 291 0.0 1.6 0.08 2.90 2.90 99 1010.2
20260507121721 19 303 0.0 0.0 0.00 2.90 2.90 99 1010.2
20260507121220 19 309 0.0 0.0 0.00 2.90 2.90 99 1010.4
20260507120720 19 102 0.0 0.0 0.00 2.90 2.90 99 1010.4
20260507120219 19 89 0.0 0.0 0.00 2.90 2.90 99 1010.3
20260507115718 19 204 0.0 0.0 0.00 2.90 2.90 99 1010.4
20260507115217 19 263 0.0 0.0 0.00 2.90 2.90 99 1010.5
20260507114716 19 275 0.0 0.0 0.08 2.90 2.90 99 1010.6
20260507114216 19 0 0.0 0.0 0.08 2.90 2.90 99 1010.6
20260507113715 18 268 0.0 1.6 0.10 2.90 2.90 99 1010.6
20260507113214 18 259 0.0 0.0 0.33 2.90 2.90 99 1010.5
20260507112713 18 129 0.0 0.0 0.36 2.90 2.90 99 1010.6
20260507112212 18 304 0.0 1.6 0.43 2.90 2.90 99 1010.6
20260507111711 18 275 1.6 1.6 0.00 2.90 2.90 99 1010.8
20260507111211 18 357 0.0 1.6 0.00 2.90 2.90 99 1010.6
20260507110710 18 151 0.0 1.6 0.00 2.90 2.90 99 1010.4
20260507110209 18 33 0.0 0.0 0.00 2.90 2.90 99 1010.4
20260507105708 18 157 0.0 1.6 0.00 2.90 2.90 99 1010.3
20260507105208 18 245 0.0 0.0 0.00 2.87 2.87 99 1010.4
20260507104707 18 281 0.0 1.6 0.00 2.87 2.87 99 1010.4
20260507104206 18 297 1.6 3.2 0.00 2.87 2.87 99 1010.3
20260507103705 18 276 0.0 1.6 0.00 2.84 2.84 99 1010.2
20260507103204 18 40 1.6 1.6 0.81 2.84 2.84 99 1010.1
20260507102704 18 278 0.0 0.0 0.79 2.84 2.84 99 1010.1
20260507102203 18 294 1.6 1.6 2.06 2.92 2.92 99 1010.3
20260507101702 18 177 0.0 0.0 0.00 2.92 2.92 99 1010.5
20260507101201 18 249 0.0 0.0 0.00 2.90 2.90 99 1010.3
20260507100700 18 269 0.0 0.0 0.00 2.90 2.90 99 1010.2
20260507100159 18 281 0.0 1.6 0.43 2.92 2.92 99 1010.2
20260507095659 18 295 1.6 1.6 0.51 2.92 2.92 99 1010.1
20260507095158 18 327 1.6 1.6 0.48 2.90 2.90 99 1010.2
20260507094657 18 240 0.0 1.6 6.12 2.90 2.90 99 1010.2
20260507094156 18 312 0.0 1.6 7.95 2.90 2.90 99 1010.2
20260507093655 18 253 1.6 1.6 8.66 2.77 2.77 99 1010.0
20260507093155 18 207 0.0 1.6 10.74 2.77 2.77 99 1010.0
20260507092654 18 339 0.0 0.0 12.29 2.72 2.72 99 1010.1
20260507092153 18 111 0.0 1.6 16.38 3.05 3.05 99 1010.2
20260507091652 18 223 0.0 1.6 17.17 3.05 3.05 99 1010.3
20260507091152 18 178 0.0 1.6 17.70 3.02 3.02 99 1010.3
20260507090651 18 195 0.0 0.0 16.92 2.87 2.87 99 1010.1
20260507090150 18 81 0.0 1.6 17.04 2.87 2.87 99 1010.2
20260507085649 18 123 0.0 1.6 17.58 2.84 2.84 99 1010.4
20260507085148 18 128 0.0 0.0 12.42 22.96 22.96 99 1010.5
20260507084647 18 328 0.0 0.0 11.73 21.13 21.13 99 1010.9
20260507084147 18 355 0.0 0.0 9.91 19.15 19.15 99 1010.7
20260507083646 18 0 0.0 0.0 7.77 16.99 16.99 99 1010.8
20260507083145 18 154 0.0 0.0 5.41 15.09 15.09 99 1011.0
20260507082645 18 0 0.0 0.0 4.80 14.17 14.17 99 1011.2
20260507082144 18 319 1.6 1.6 4.62 13.36 13.36 99 1011.1
20260507081644 18 322 0.0 1.6 4.34 12.73 12.73 99 1011.1
20260507081142 18 107 0.0 0.0 3.68 11.96 11.96 99 1010.7
20260507080641 18 300 0.0 0.0 3.40 11.68 11.68 99 1011.0
20260507080141 18 78 0.0 0.0 2.74 11.02 11.02 99 1010.2
20260507075640 18 78 1.6 1.6 1.37 10.54 10.54 99 1010.5
20260507075139 18 108 0.0 1.6 0.23 9.40 9.40 99 1010.7
20260507074638 18 26 0.0 0.0 0.08 9.25 9.25 99 1011.3
20260507074138 18 348 0.0 1.6 0.08 9.22 9.22 99 1011.3
20260507073637 18 274 0.0 0.0 0.51 9.65 9.65 99 1011.2
20260507073136 18 351 0.0 0.0 0.23 9.37 9.37 99 1011.4
20260507072635 18 131 0.0 1.6 0.00 8.74 8.74 99 1011.2
20260507072135 18 169 0.0 1.6 0.00 8.36 8.36 99 1011.1
20260507071634 18 352 1.6 1.6 0.46 8.28 8.28 99 1011.3
20260507071133 18 77 0.0 0.0 0.46 8.28 8.28 99 1011.0
20260507070632 18 173 0.0 1.6 0.46 8.28 8.28 99 1011.2
20260507070132 18 0 0.0 0.0 1.35 9.17 9.17 99 1011.5
20260507065631 18 14 0.0 0.0 3.00 9.17 9.17 99 1011.3
20260507065130 18 67 0.0 0.0 3.00 9.17 9.17 99 1011.3
20260507064629 18 76 0.0 0.0 3.00 9.17 9.17 99 1011.5
20260507064128 18 63 0.0 0.0 3.00 9.17 9.17 99 1011.8
20260507063628 18 0 0.0 0.0 3.00 9.17 9.17 99 1011.8
20260507063127 18 358 0.0 1.6 3.38 9.17 9.17 99 1012.0
20260507062626 18 47 0.0 1.6 3.38 9.17 9.17 99 1011.8
20260507062125 18 69 0.0 0.0 2.06 7.82 7.82 99 1012.2
20260507061624 18 171 1.6 1.6 0.00 7.82 7.82 99 1012.4
20260507061124 18 2 0.0 0.0 0.71 7.82 7.82 99 1012.4
20260507060623 18 293 0.0 1.6 1.88 7.82 7.82 99 1012.2
20260507060122 18 0 0.0 0.0 0.89 6.15 6.15 100 1011.8
20260507055621 18 235 0.0 0.0 1.80 6.15 6.15 100 1012.0
20260507055120 18 352 0.0 0.0 3.25 6.15 6.15 100 1012.0
20260507054620 18 293 0.0 0.0 4.39 6.15 6.15 99 1012.0
20260507054119 18 238 0.0 0.0 4.70 6.15 6.15 99 1011.5
20260507053618 18 104 0.0 0.0 5.21 5.77 5.77 99 1011.4
20260507053117 18 190 0.0 0.0 5.59 5.77 5.77 99 1011.6
20260507052617 18 204 0.0 1.6 5.59 5.77 5.77 98 1011.4
20260507052116 19 129 0.0 1.6 10.31 10.49 10.49 98 1011.6
20260507051616 19 149 1.6 1.6 6.99 7.11 7.11 97 1012.5
20260507051115 19 317 0.0 1.6 5.79 5.94 5.94 97 1013.3
20260507050614 19 268 1.6 1.6 5.23 5.26 5.26 96 1013.2
20260507050113 20 289 1.6 1.6 4.34 4.34 4.34 95 1013.4
20260507045613 20 310 1.6 1.6 0.00 2.90 2.90 93 1013.5
20260507045112 20 285 1.6 1.6 0.00 1.75 1.75 92 1013.8
20260507044611 20 263 1.6 1.6 0.00 1.45 1.45 89 1013.7
20260507044110 20 254 1.6 1.6 0.00 0.56 0.56 87 1013.7
20260507043609 21 295 0.0 1.6 0.00 0.18 0.18 85 1013.3
20260507043109 21 324 1.6 1.6 0.00 0.18 0.18 85 1013.0
20260507042608 21 294 1.6 1.6 0.00 0.18 0.18 84 1013.0
20260507042107 21 312 0.0 0.0 0.00 0.13 0.13 83 1012.9
20260507041607 21 21 0.0 1.6 0.00 0.13 0.13 82 1012.9
20260507041106 21 287 1.6 3.2 0.00 0.05 0.05 83 1012.9
20260507040605 21 272 1.6 1.6 0.00 0.00 0.00 84 1012.8
20260507040105 21 263 0.0 0.0 1.47 7.49 7.49 83 1012.6
20260507035604 22 260 0.0 1.6 1.47 7.49 7.49 80 1012.5
20260507035103 22 231 0.0 1.6 1.50 7.52 7.52 77 1012.2
20260507034602 22 161 0.0 1.6 0.81 6.83 6.83 73 1012.0
20260507034102 22 222 0.0 1.6 0.25 6.27 6.27 72 1012.0
20260507033601 23 164 0.0 1.6 0.00 6.02 6.02 70 1012.2
20260507033100 23 279 1.6 1.6 0.00 6.02 6.02 70 1012.3
20260507032559 23 303 1.6 1.6 0.00 6.02 6.02 70 1012.5
20260507032058 23 286 1.6 1.6 0.00 6.02 6.02 70 1012.5
20260507031558 23 270 1.6 1.6 0.00 6.02 6.02 70 1012.5
20260507031057 23 280 0.0 1.6 0.00 6.02 6.02 70 1012.4
20260507030556 23 268 1.6 3.2 0.00 6.02 6.02 69 1012.2